date,time,humid
2018-10-01,00:00,-999
2018-10-01,01:00,-999
2018-10-01,02:00,-999
2018-10-01,03:00,-999
2018-10-01,04:00,-999
2018-10-01,05:00,-999
2018-10-01,06:00,-999
2018-10-01,07:00,-999
2018-10-01,08:00,-999
2018-10-01,09:00,84.5
2018-10-01,10:00,72.17
2018-10-01,11:00,66
2018-10-01,12:00,62.83
2018-10-01,13:00,69.83
2018-10-01,14:00,61.83
2018-10-01,15:00,71.5
2018-10-01,16:00,92.5
2018-10-01,17:00,97
2018-10-01,18:00,99.5
2018-10-01,19:00,-999
2018-10-01,20:00,-999
2018-10-01,21:00,-999
2018-10-01,22:00,-999
2018-10-01,23:00,-999
2018-10-02,00:00,-999
2018-10-02,01:00,-999
2018-10-02,02:00,-999
2018-10-02,03:00,-999
2018-10-02,04:00,-999
2018-10-02,05:00,-999
2018-10-02,06:00,-999
2018-10-02,07:00,-999
2018-10-02,08:00,-999
2018-10-02,09:00,89.67
2018-10-02,10:00,70.5
2018-10-02,11:00,63
2018-10-02,12:00,57.83
2018-10-02,13:00,56.33
2018-10-02,14:00,53.83
2018-10-02,15:00,51.83
2018-10-02,16:00,52.83
2018-10-02,17:00,58.33
2018-10-02,18:00,73
2018-10-02,19:00,81
2018-10-02,20:00,90.5
2018-10-02,21:00,94.17
2018-10-02,22:00,92.33
2018-10-02,23:00,96.67
2018-10-03,00:00,99.5
2018-10-03,01:00,-999
2018-10-03,02:00,-999
2018-10-03,03:00,-999
2018-10-03,04:00,-999
2018-10-03,05:00,-999
2018-10-03,06:00,-999
2018-10-03,07:00,-999
2018-10-03,08:00,98
2018-10-03,09:00,74
2018-10-03,10:00,68.83
2018-10-03,11:00,64.33
2018-10-03,12:00,62.17
2018-10-03,13:00,54.17
2018-10-03,14:00,55.17
2018-10-03,15:00,64.33
2018-10-03,16:00,57.83
2018-10-03,17:00,56.17
2018-10-03,18:00,71.33
2018-10-03,19:00,94.33
2018-10-03,20:00,98.83
2018-10-03,21:00,-999
2018-10-03,22:00,-999
2018-10-03,23:00,-999
2018-10-04,00:00,-999
2018-10-04,01:00,-999
2018-10-04,02:00,-999
2018-10-04,03:00,-999
2018-10-04,04:00,-999
2018-10-04,05:00,-999
2018-10-04,06:00,-999
2018-10-04,07:00,-999
2018-10-04,08:00,90
2018-10-04,09:00,73.33
2018-10-04,10:00,62.67
2018-10-04,11:00,57.33
2018-10-04,12:00,56.83
2018-10-04,13:00,51.83
2018-10-04,14:00,53.33
2018-10-04,15:00,55.67
2018-10-04,16:00,62.5
2018-10-04,17:00,85.33
2018-10-04,18:00,99.33
2018-10-04,19:00,-999
2018-10-04,20:00,-999
2018-10-04,21:00,-999
2018-10-04,22:00,-999
2018-10-04,23:00,-999
2018-10-05,00:00,-999
2018-10-05,01:00,-999
2018-10-05,02:00,-999
2018-10-05,03:00,-999
2018-10-05,04:00,-999
2018-10-05,05:00,-999
2018-10-05,06:00,-999
2018-10-05,07:00,-999
2018-10-05,08:00,-999
2018-10-05,09:00,81.17
2018-10-05,10:00,75.33
2018-10-05,11:00,60
2018-10-05,12:00,55.5
2018-10-05,13:00,54.33
2018-10-05,14:00,56.5
2018-10-05,15:00,53.67
2018-10-05,16:00,57.83
2018-10-05,17:00,63.33
2018-10-05,18:00,78
2018-10-05,19:00,89.83
2018-10-05,20:00,93.67
2018-10-05,21:00,93.17
2018-10-05,22:00,98
2018-10-05,23:00,100.33
2018-10-06,00:00,-999
2018-10-06,01:00,-999
2018-10-06,02:00,-999
2018-10-06,03:00,-999
2018-10-06,04:00,-999
2018-10-06,05:00,-999
2018-10-06,06:00,-999
2018-10-06,07:00,-999
2018-10-06,08:00,99.5
2018-10-06,09:00,74.33
2018-10-06,10:00,58.33
2018-10-06,11:00,54.67
2018-10-06,12:00,55.83
2018-10-06,13:00,54.67
2018-10-06,14:00,53.67
2018-10-06,15:00,49.83
2018-10-06,16:00,57
2018-10-06,17:00,55.5
2018-10-06,18:00,77.67
2018-10-06,19:00,87.33
2018-10-06,20:00,92.33
2018-10-06,21:00,96.5
2018-10-06,22:00,98.17
2018-10-06,23:00,99.17
2018-10-07,00:00,-999
2018-10-07,01:00,-999
2018-10-07,02:00,-999
2018-10-07,03:00,-999
2018-10-07,04:00,-999
2018-10-07,05:00,-999
2018-10-07,06:00,-999
2018-10-07,07:00,-999
2018-10-07,08:00,98.67
2018-10-07,09:00,67.67
2018-10-07,10:00,58
2018-10-07,11:00,54.5
2018-10-07,12:00,-999
2018-10-07,13:00,41.33
2018-10-07,14:00,43.33
2018-10-07,15:00,41.17
2018-10-07,16:00,65
2018-10-07,17:00,52.5
2018-10-07,18:00,79.83
2018-10-07,19:00,92.5
2018-10-07,20:00,95.33
2018-10-07,21:00,97.33
2018-10-07,22:00,99
2018-10-07,23:00,98.17
2018-10-08,00:00,99.33
2018-10-08,01:00,99.5
2018-10-08,02:00,100.33
2018-10-08,03:00,100.33
2018-10-08,04:00,100
2018-10-08,05:00,100
2018-10-08,06:00,-999
2018-10-08,07:00,99.17
2018-10-08,08:00,80.83
2018-10-08,09:00,65
2018-10-08,10:00,49.67
2018-10-08,11:00,46
2018-10-08,12:00,52.17
2018-10-08,13:00,49.67
2018-10-08,14:00,42
2018-10-08,15:00,41.17
2018-10-08,16:00,55.17
2018-10-08,17:00,65.33
2018-10-08,18:00,81
2018-10-08,19:00,92.67
2018-10-08,20:00,94.83
2018-10-08,21:00,96.5
2018-10-08,22:00,98.83
2018-10-08,23:00,99.17
2018-10-09,00:00,99.67
2018-10-09,01:00,99.83
2018-10-09,02:00,100.17
2018-10-09,03:00,100
2018-10-09,04:00,100.33
2018-10-09,05:00,97.83
2018-10-09,06:00,100.17
2018-10-09,07:00,99
2018-10-09,08:00,84.5
2018-10-09,09:00,64.33
2018-10-09,10:00,58.17
2018-10-09,11:00,48.83
2018-10-09,12:00,44
2018-10-09,13:00,41.17
2018-10-09,14:00,42
2018-10-09,15:00,42.67
2018-10-09,16:00,41.83
2018-10-09,17:00,49.67
2018-10-09,18:00,76.33
2018-10-09,19:00,87
2018-10-09,20:00,91.83
2018-10-09,21:00,94.33
2018-10-09,22:00,96.5
2018-10-09,23:00,98.17
2018-10-10,00:00,98.83
2018-10-10,01:00,99.17
2018-10-10,02:00,99.83
2018-10-10,03:00,-999
2018-10-10,04:00,-999
2018-10-10,05:00,-999
2018-10-10,06:00,-999
2018-10-10,07:00,99.5
2018-10-10,08:00,79.5
2018-10-10,09:00,58.83
2018-10-10,10:00,50.33
2018-10-10,11:00,47.67
2018-10-10,12:00,47.83
2018-10-10,13:00,40.5
2018-10-10,14:00,38.5
2018-10-10,15:00,42.33
2018-10-10,16:00,47
2018-10-10,17:00,47.17
2018-10-10,18:00,70.83
2018-10-10,19:00,85.33
2018-10-10,20:00,92
2018-10-10,21:00,96.67
2018-10-10,22:00,98.67
2018-10-10,23:00,100
2018-10-11,00:00,99.67
2018-10-11,01:00,99.33
2018-10-11,02:00,100
2018-10-11,03:00,-999
2018-10-11,04:00,-999
2018-10-11,05:00,-999
2018-10-11,06:00,-999
2018-10-11,07:00,96.67
2018-10-11,08:00,78.33
2018-10-11,09:00,58.83
2018-10-11,10:00,56.17
2018-10-11,11:00,47.67
2018-10-11,12:00,47.17
2018-10-11,13:00,45.83
2018-10-11,14:00,44.83
2018-10-11,15:00,44.83
2018-10-11,16:00,42.5
2018-10-11,17:00,51.67
2018-10-11,18:00,76
2018-10-11,19:00,90.83
2018-10-11,20:00,92
2018-10-11,21:00,92.5
2018-10-11,22:00,95.17
2018-10-11,23:00,98.33
2018-10-12,00:00,100.17
2018-10-12,01:00,99
2018-10-12,02:00,97.5
2018-10-12,03:00,96.17
2018-10-12,04:00,98.67
2018-10-12,05:00,97.33
2018-10-12,06:00,94.5
2018-10-12,07:00,92.33
2018-10-12,08:00,76.5
2018-10-12,09:00,69.33
2018-10-12,10:00,50.67
2018-10-12,11:00,53
2018-10-12,12:00,48.67
2018-10-12,13:00,47.83
2018-10-12,14:00,47.33
2018-10-12,15:00,49
2018-10-12,16:00,43.67
2018-10-12,17:00,48.83
2018-10-12,18:00,75.5
2018-10-12,19:00,91.17
2018-10-12,20:00,94.83
2018-10-12,21:00,96.67
2018-10-12,22:00,95.33
2018-10-12,23:00,98.17
2018-10-13,00:00,97.5
2018-10-13,01:00,99.17
2018-10-13,02:00,99.17
2018-10-13,03:00,99.33
2018-10-13,04:00,-999
2018-10-13,05:00,-999
2018-10-13,06:00,-999
2018-10-13,07:00,99.5
2018-10-13,08:00,79.5
2018-10-13,09:00,64.33
2018-10-13,10:00,62.5
2018-10-13,11:00,55.83
2018-10-13,12:00,49.67
2018-10-13,13:00,53.83
2018-10-13,14:00,49.33
2018-10-13,15:00,52.33
2018-10-13,16:00,59.67
2018-10-13,17:00,63.67
2018-10-13,18:00,79
2018-10-13,19:00,90.17
2018-10-13,20:00,96.33
2018-10-13,21:00,96
2018-10-13,22:00,96.33
2018-10-13,23:00,97
2018-10-14,00:00,99
2018-10-14,01:00,99.33
2018-10-14,02:00,100
2018-10-14,03:00,100.17
2018-10-14,04:00,99.17
2018-10-14,05:00,100.17
2018-10-14,06:00,-999
2018-10-14,07:00,95.17
2018-10-14,08:00,67.5
2018-10-14,09:00,61
2018-10-14,10:00,60.5
2018-10-14,11:00,53.33
2018-10-14,12:00,50
2018-10-14,13:00,43.67
2018-10-14,14:00,40.33
2018-10-14,15:00,41.5
2018-10-14,16:00,60.83
2018-10-14,17:00,81.17
2018-10-14,18:00,93
2018-10-14,19:00,95.33
2018-10-14,20:00,97.67
2018-10-14,21:00,97.83
2018-10-14,22:00,97.83
2018-10-14,23:00,98.83
2018-10-15,00:00,99.5
2018-10-15,01:00,100.17
2018-10-15,02:00,-999
2018-10-15,03:00,-999
2018-10-15,04:00,-999
2018-10-15,05:00,-999
2018-10-15,06:00,99.67
2018-10-15,07:00,98.5
2018-10-15,08:00,86.83
2018-10-15,09:00,75
2018-10-15,10:00,58.33
2018-10-15,11:00,52.67
2018-10-15,12:00,46
2018-10-15,13:00,45.5
2018-10-15,14:00,39.67
2018-10-15,15:00,39
2018-10-15,16:00,46.67
2018-10-15,17:00,48.83
2018-10-15,18:00,77.33
2018-10-15,19:00,88.5
2018-10-15,20:00,90.5
2018-10-15,21:00,91.17
2018-10-15,22:00,93.5
2018-10-15,23:00,97.5
2018-10-16,00:00,98.67
2018-10-16,01:00,99.83
2018-10-16,02:00,-999
2018-10-16,03:00,-999
2018-10-16,04:00,-999
2018-10-16,05:00,-999
2018-10-16,06:00,-999
2018-10-16,07:00,-999
2018-10-16,08:00,85.83
2018-10-16,09:00,59.67
2018-10-16,10:00,54.67
2018-10-16,11:00,48
2018-10-16,12:00,45.5
2018-10-16,13:00,42.67
2018-10-16,14:00,40.5
2018-10-16,15:00,51
2018-10-16,16:00,38
2018-10-16,17:00,66
2018-10-16,18:00,78.33
2018-10-16,19:00,86
2018-10-16,20:00,91.33
2018-10-16,21:00,88.5
2018-10-16,22:00,93.67
2018-10-16,23:00,97
2018-10-17,00:00,98.33
2018-10-17,01:00,97.83
2018-10-17,02:00,98
2018-10-17,03:00,100
2018-10-17,04:00,100.17
2018-10-17,05:00,-999
2018-10-17,06:00,-999
2018-10-17,07:00,-999
2018-10-17,08:00,87
2018-10-17,09:00,62.67
2018-10-17,10:00,54.17
2018-10-17,11:00,54
2018-10-17,12:00,48.17
2018-10-17,13:00,43.83
2018-10-17,14:00,43.33
2018-10-17,15:00,41.5
2018-10-17,16:00,42.67
2018-10-17,17:00,48.33
2018-10-17,18:00,73.17
2018-10-17,19:00,77
2018-10-17,20:00,85.17
2018-10-17,21:00,88.67
2018-10-17,22:00,88.33
2018-10-17,23:00,93.5
2018-10-18,00:00,95.33
2018-10-18,01:00,96.17
2018-10-18,02:00,97.17
2018-10-18,03:00,99.17
2018-10-18,04:00,-999
2018-10-18,05:00,-999
2018-10-18,06:00,99.67
2018-10-18,07:00,97.67
2018-10-18,08:00,83.67
2018-10-18,09:00,59.33
2018-10-18,10:00,53
2018-10-18,11:00,49.5
2018-10-18,12:00,44.67
2018-10-18,13:00,36.17
2018-10-18,14:00,43.33
2018-10-18,15:00,40
2018-10-18,16:00,40.17
2018-10-18,17:00,64.17
2018-10-18,18:00,75.5
2018-10-18,19:00,82
2018-10-18,20:00,81.5
2018-10-18,21:00,87.67
2018-10-18,22:00,91.67
2018-10-18,23:00,96.5
2018-10-19,00:00,97.67
2018-10-19,01:00,98.83
2018-10-19,02:00,-999
2018-10-19,03:00,-999
2018-10-19,04:00,-999
2018-10-19,05:00,-999
2018-10-19,06:00,-999
2018-10-19,07:00,99.33
2018-10-19,08:00,83.33
2018-10-19,09:00,68
2018-10-19,10:00,59
2018-10-19,11:00,51.33
2018-10-19,12:00,49.33
2018-10-19,13:00,46.5
2018-10-19,14:00,48.33
2018-10-19,15:00,45.5
2018-10-19,16:00,45.33
2018-10-19,17:00,55.67
2018-10-19,18:00,78.5
2018-10-19,19:00,92.17
2018-10-19,20:00,96.33
2018-10-19,21:00,98.17
2018-10-19,22:00,99
2018-10-19,23:00,100
2018-10-20,00:00,98.67
2018-10-20,01:00,100.33
2018-10-20,02:00,100.33
2018-10-20,03:00,95.17
2018-10-20,04:00,99.17
2018-10-20,05:00,-999
2018-10-20,06:00,-999
2018-10-20,07:00,97
2018-10-20,08:00,85.5
2018-10-20,09:00,70.17
2018-10-20,10:00,62
2018-10-20,11:00,62
2018-10-20,12:00,62.67
2018-10-20,13:00,58.67
2018-10-20,14:00,50.67
2018-10-20,15:00,55
2018-10-20,16:00,59.33
2018-10-20,17:00,92.67
2018-10-20,18:00,97
2018-10-20,19:00,96.67
2018-10-20,20:00,99.33
2018-10-20,21:00,100.33
2018-10-20,22:00,-999
2018-10-20,23:00,-999
2018-10-21,00:00,-999
2018-10-21,01:00,-999
2018-10-21,02:00,-999
2018-10-21,03:00,-999
2018-10-21,04:00,-999
2018-10-21,05:00,-999
2018-10-21,06:00,-999
2018-10-21,07:00,99.33
2018-10-21,08:00,88.17
2018-10-21,09:00,66.5
2018-10-21,10:00,58
2018-10-21,11:00,52
2018-10-21,12:00,58.5
2018-10-21,13:00,49.33
2018-10-21,14:00,49.67
2018-10-21,15:00,74.17
2018-10-21,16:00,75
2018-10-21,17:00,93.17
2018-10-21,18:00,99
2018-10-21,19:00,-999
2018-10-21,20:00,-999
2018-10-21,21:00,-999
2018-10-21,22:00,-999
2018-10-21,23:00,-999
2018-10-22,00:00,-999
2018-10-22,01:00,-999
2018-10-22,02:00,-999
2018-10-22,03:00,-999
2018-10-22,04:00,-999
2018-10-22,05:00,-999
2018-10-22,06:00,-999
2018-10-22,07:00,-999
2018-10-22,08:00,95.67
2018-10-22,09:00,63.83
2018-10-22,10:00,57.83
2018-10-22,11:00,60
2018-10-22,12:00,51.17
2018-10-22,13:00,51.17
2018-10-22,14:00,45.67
2018-10-22,15:00,53.5
2018-10-22,16:00,58.83
2018-10-22,17:00,53.17
2018-10-22,18:00,83
2018-10-22,19:00,93.83
2018-10-22,20:00,97
2018-10-22,21:00,99.83
2018-10-22,22:00,97.5
2018-10-22,23:00,99.83
2018-10-23,00:00,100.33
2018-10-23,01:00,-999
2018-10-23,02:00,-999
2018-10-23,03:00,-999
2018-10-23,04:00,-999
2018-10-23,05:00,-999
2018-10-23,06:00,-999
2018-10-23,07:00,-999
2018-10-23,08:00,93.83
2018-10-23,09:00,70.67
2018-10-23,10:00,67.5
2018-10-23,11:00,57
2018-10-23,12:00,49.17
2018-10-23,13:00,46.33
2018-10-23,14:00,44
2018-10-23,15:00,57.67
2018-10-23,16:00,71.5
2018-10-23,17:00,80.33
2018-10-23,18:00,85
2018-10-23,19:00,92.83
2018-10-23,20:00,93.67
2018-10-23,21:00,97
2018-10-23,22:00,98.17
2018-10-23,23:00,-999
2018-10-24,00:00,-999
2018-10-24,01:00,-999
2018-10-24,02:00,-999
2018-10-24,03:00,-999
2018-10-24,04:00,-999
2018-10-24,05:00,-999
2018-10-24,06:00,-999
2018-10-24,07:00,-999
2018-10-24,08:00,96.5
2018-10-24,09:00,86
2018-10-24,10:00,62.33
2018-10-24,11:00,49.17
2018-10-24,12:00,54.67
2018-10-24,13:00,45.17
2018-10-24,14:00,39.67
2018-10-24,15:00,43.67
2018-10-24,16:00,47
2018-10-24,17:00,54.83
2018-10-24,18:00,78.5
2018-10-24,19:00,93.17
2018-10-24,20:00,98
2018-10-24,21:00,99.17
2018-10-24,22:00,97.83
2018-10-24,23:00,99.67
2018-10-25,00:00,100
2018-10-25,01:00,100.33
2018-10-25,02:00,-999
2018-10-25,03:00,-999
2018-10-25,04:00,-999
2018-10-25,05:00,-999
2018-10-25,06:00,-999
2018-10-25,07:00,-999
2018-10-25,08:00,100.33
2018-10-25,09:00,94.17
2018-10-25,10:00,76.33
2018-10-25,11:00,57
2018-10-25,12:00,53
2018-10-25,13:00,45
2018-10-25,14:00,49.17
2018-10-25,15:00,52.17
2018-10-25,16:00,46
2018-10-25,17:00,49.5
2018-10-25,18:00,80.67
2018-10-25,19:00,91
2018-10-25,20:00,89.83
2018-10-25,21:00,96.67
2018-10-25,22:00,98.67
2018-10-25,23:00,100
2018-10-26,00:00,-999
2018-10-26,01:00,-999
2018-10-26,02:00,-999
2018-10-26,03:00,-999
2018-10-26,04:00,-999
2018-10-26,05:00,-999
2018-10-26,06:00,-999
2018-10-26,07:00,-999
2018-10-26,08:00,90.33
2018-10-26,09:00,-999
2018-10-26,10:00,50
2018-10-26,11:00,46.83
2018-10-26,12:00,49.33
2018-10-26,13:00,46.17
2018-10-26,14:00,75.5
2018-10-26,15:00,70.5
2018-10-26,16:00,71.67
2018-10-26,17:00,78
2018-10-26,18:00,92.5
2018-10-26,19:00,98.83
2018-10-26,20:00,-999
2018-10-26,21:00,-999
2018-10-26,22:00,-999
2018-10-26,23:00,-999
2018-10-27,00:00,-999
2018-10-27,01:00,-999
2018-10-27,02:00,-999
2018-10-27,03:00,-999
2018-10-27,04:00,-999
2018-10-27,05:00,-999
2018-10-27,06:00,-999
2018-10-27,07:00,-999
2018-10-27,08:00,95.17
2018-10-27,09:00,64.83
2018-10-27,10:00,51.33
2018-10-27,11:00,52
2018-10-27,12:00,44.33
2018-10-27,13:00,42.17
2018-10-27,14:00,47.17
2018-10-27,15:00,42
2018-10-27,16:00,40.33
2018-10-27,17:00,51.17
2018-10-27,18:00,75.67
2018-10-27,19:00,90
2018-10-27,20:00,87.5
2018-10-27,21:00,90.5
2018-10-27,22:00,90.33
2018-10-27,23:00,94.67
2018-10-28,00:00,99.5
2018-10-28,01:00,-999
2018-10-28,02:00,-999
2018-10-28,03:00,-999
2018-10-28,04:00,98.5
2018-10-28,05:00,93.5
2018-10-28,06:00,97.67
2018-10-28,07:00,96
2018-10-28,08:00,82.17
2018-10-28,09:00,54
2018-10-28,10:00,49.17
2018-10-28,11:00,49.83
2018-10-28,12:00,48.17
2018-10-28,13:00,47.67
2018-10-28,14:00,46.5
2018-10-28,15:00,42.83
2018-10-28,16:00,41
2018-10-28,17:00,48.33
2018-10-28,18:00,77.83
2018-10-28,19:00,91.17
2018-10-28,20:00,96.83
2018-10-28,21:00,99.67
2018-10-28,22:00,100.33
2018-10-28,23:00,-999
2018-10-29,00:00,-999
2018-10-29,01:00,-999
2018-10-29,02:00,-999
2018-10-29,03:00,-999
2018-10-29,04:00,-999
2018-10-29,05:00,-999
2018-10-29,06:00,-999
2018-10-29,07:00,-999
2018-10-29,08:00,85.67
2018-10-29,09:00,63.67
2018-10-29,10:00,54
2018-10-29,11:00,45.67
2018-10-29,12:00,44.17
2018-10-29,13:00,48.5
2018-10-29,14:00,41.83
2018-10-29,15:00,47
2018-10-29,16:00,43.67
2018-10-29,17:00,55.5
2018-10-29,18:00,77.83
2018-10-29,19:00,91.17
2018-10-29,20:00,96
2018-10-29,21:00,98.17
2018-10-29,22:00,98
2018-10-29,23:00,97.83
2018-10-30,00:00,100.17
2018-10-30,01:00,99.5
2018-10-30,02:00,96.17
2018-10-30,03:00,89.67
2018-10-30,04:00,96
2018-10-30,05:00,97
2018-10-30,06:00,99.5
2018-10-30,07:00,95.33
2018-10-30,08:00,84.83
2018-10-30,09:00,54
2018-10-30,10:00,50
2018-10-30,11:00,46.33
2018-10-30,12:00,38.5
2018-10-30,13:00,35.67
2018-10-30,14:00,34
2018-10-30,15:00,34
2018-10-30,16:00,37.5
2018-10-30,17:00,48.17
2018-10-30,18:00,73.33
2018-10-30,19:00,84.83
2018-10-30,20:00,89.5
2018-10-30,21:00,85.83
2018-10-30,22:00,89.17
2018-10-30,23:00,93.33
2018-10-31,00:00,87.83
2018-10-31,01:00,88.17
2018-10-31,02:00,77.33
2018-10-31,03:00,86.17
2018-10-31,04:00,91.5
2018-10-31,05:00,93.33
2018-10-31,06:00,89.83
2018-10-31,07:00,81.83
2018-10-31,08:00,69.83
2018-10-31,09:00,45
2018-10-31,10:00,39.5
2018-10-31,11:00,34.5
2018-10-31,12:00,32.17
2018-10-31,13:00,31.83
2018-10-31,14:00,30
2018-10-31,15:00,30.83
2018-10-31,16:00,33.33
2018-10-31,17:00,39
2018-10-31,18:00,70.67
2018-10-31,19:00,84.33
2018-10-31,20:00,87.5
2018-10-31,21:00,96
2018-10-31,22:00,95.17
2018-10-31,23:00,94.17
